Location: Tamazert
(32.6352°N, 5.2072°W)
Time: 23:19:43
(UTC+00:00)

Cosmos 2056 Rocket - Pass Details

Date: 22 May 2022
Orbit: 741 x 801 km, 74.0° (Epoch: 24 June)

Event Time Altitude Azimuth Distance (km) Brightness Sun altitude
Exits shadow 04:13:00 - 189° (S) 2,549 5.8 -12.7°
Reaches altitude 10° 04:13:46 10° 188° (S) 2,251 5.5 -12.6°
Maximum altitude 04:18:51 72° 104° (ESE) 790 3.7 -11.7°
Drops below altitude 10° 04:24:01 10° 21° (NNE) 2,296 6.8 -10.8°
Sets 04:26:25 0° 20° (NNE) 3,234 7.7 -10.4°
